Zurück zum Katalog

SITRO-AIS-13

AktivKommunikationSSO
NORAD 61743·PAYLOAD·🇷🇺 Russia
Dieser Satellitenname wurde noch nicht durch offizielle Quellen bestätigt.

Gestartet Nov 4, 2024 von Vostochny Cosmodrome

Loading…

Nächste Überflüge (nächste 24 Stunden)

TLE

AktuellSource: Space-Track

Epoche: Sep 14, 2026, 20:01 UTC

1 61743U 24199J   26257.83462476  .00002633  00000-0  22585-3 0  9997
2 61743  97.3204  91.8176 0007937 113.7206 246.4851 14.98266409145410

Verfolge SITRO-AIS-13 in Echtzeit mit AllMySat

Download on the App Store